Overview Statistics Trail Chart Weather Telemetry Raw packets
 

This is the latest recevied weather packets stored in our database for station/object KD7CIH. If no packets are shown the sender has not sent any weather packets the latest 10 day(s).

<< 22 23 24 25 26 27 28 >>
Time Temp. Humidity Pressure Rain* Wind** Luminosity Snow
1788544053 24.44° C 21% 1012.8 hPa 0 mm - - -
1788543753 24.44° C 20% 1012.8 hPa 0 mm - - -
1788543453 24.44° C 21% 1012.8 hPa 0 mm - - -
1788543155 23.89° C 20% 1012.9 hPa 0 mm - - -
1788542853 23.89° C 20% 1012.9 hPa 0 mm - - -
1788542682 23.89° C 21% 1012.9 hPa 0 mm - - -
1788542257 23.89° C 22% 1012.9 hPa 0 mm - - -
1788541953 23.89° C 22% 1012.8 hPa 0 mm - - -
1788541781 23.89° C 22% 1012.8 hPa 0 mm - - -
1788541354 23.33° C 23% 1012.9 hPa 0 mm - - -
1788541181 23.33° C 21% 1012.9 hPa 0 mm - - -
1788540753 23.33° C 22% 1012.9 hPa 0 mm - - -
1788540454 23.33° C 24% 1012.9 hPa 0 mm - - -
1788540156 22.78° C 23% 1012.9 hPa 0 mm - - -
1788539849 22.78° C 24% 1012.9 hPa 0 mm - - -
1788539549 22.78° C 24% 1012.9 hPa 0 mm - - -
1788539249 22.78° C 25% 1012.9 hPa 0 mm - - -
1788538951 22.22° C 26% 1013 hPa 0 mm - - -
1788538649 22.22° C 26% 1012.9 hPa 0 mm - - -
1788538349 22.22° C 27% 1012.9 hPa 0 mm - - -
1788538048 21.11° C 28% 1013 hPa 0 mm - - -
1788537751 20.56° C 31% 1012.9 hPa 0 mm - - -
1788537449 20.56° C 31% 1012.9 hPa 0 mm - - -
1788537146 20° C 32% 1013 hPa 0 mm - - -
1788536845 19.44° C 32% 1012.9 hPa 0 mm - - -

* Rain latest hour (hover to see other rain measurements)
** Current wind speed in m/s (hover to see current wind gust speed)